GW1060 Weather Reports


Display with metric or nautical units.
time (UTC)temp
F
wind
direction
speed
MPH
gust
MPH
rain 1hr
in
rain 24hr
in
rain mn
in
humidity
%
barometer
mb
20260504050531 46 0.0 0.0 0.00 0.00 0.00 62 1013.9
20260504050421 46 286 0.0 0.0 0.00 0.00 0.00 61 1013.8
20260504045918 44 284 1.0 1.0 0.00 0.00 0.00 65 1013.8
20260504045524 44 0.0 0.0 0.00 0.00 0.00 67 1013.9
20260504045414 44 290 0.0 0.0 0.00 0.00 0.00 67 1013.7
20260504044910 44 290 0.0 0.0 0.00 0.00 0.00 70 1013.8
20260504044551 43 0.0 0.0 0.00 0.00 0.00 73 1013.8
20260504044408 43 290 0.0 0.0 0.00 0.00 0.00 72 1013.6
20260504043905 42 295 0.0 0.0 0.00 0.00 0.00 77 1013.6
20260504043524 42 0.0 0.0 0.00 0.00 0.00 79 1013.8
20260504043402 42 294 0.0 0.0 0.00 0.00 0.00 79 1013.5
20260504042900 42 294 0.0 0.0 0.00 0.00 0.00 79 1013.6
20260504042532 42 0.0 0.0 0.00 0.00 0.00 80 1013.7
20260504042355 42 294 0.0 0.0 0.00 0.00 0.00 80 1013.4
20260504041852 42 305 0.0 0.0 0.00 0.00 0.00 80 1013.4
20260504041524 41 0.0 0.0 0.00 0.00 0.00 80 1013.6
20260504041348 41 290 0.0 0.0 0.00 0.00 0.00 80 1013.2
20260504040845 42 289 0.0 0.0 0.00 0.00 0.00 79 1013.1
20260504040516 42 0.0 0.0 0.00 0.00 0.00 79 1013.5
20260504040342 42 293 0.0 0.0 0.00 0.00 0.00 79 1013.1
20260504035838 42 296 0.0 0.0 0.00 0.00 0.00 78 1013.3
20260504035531 42 0.0 0.0 0.00 0.00 0.00 78 1013.3
20260504035336 42 292 0.0 0.0 0.00 0.00 0.00 78 1013.1
20260504034832 42 293 0.0 0.0 0.00 0.00 0.00 77 1013.0
20260504034531 42 0.0 0.0 0.00 0.00 0.00 77 1013.3
20260504034330 42 288 0.0 0.0 0.00 0.00 0.00 77 1013.0
20260504033827 43 296 0.0 0.0 0.00 0.00 0.00 77 1013.1
20260504033524 43 0.0 0.0 0.00 0.00 0.00 75 1013.5
20260504033325 43 293 0.0 0.0 0.00 0.00 0.00 75 1013.2
20260504032821 43 287 0.0 0.0 0.00 0.00 0.00 75 1013.2
20260504032516 43 0.0 0.0 0.00 0.00 0.00 75 1013.6
20260504032319 43 293 0.0 0.0 0.00 0.00 0.00 75 1013.4
20260504031815 43 305 0.0 0.0 0.00 0.00 0.00 75 1013.2
20260504031524 43 0.0 0.0 0.00 0.00 0.00 74 1013.5
20260504031313 43 293 0.0 0.0 0.00 0.00 0.00 74 1013.3
20260504030809 43 295 0.0 0.0 0.00 0.00 0.00 74 1013.3
20260504030536 44 0.0 0.0 0.00 0.00 0.00 74 1013.5
20260504030306 44 293 0.0 0.0 0.00 0.00 0.00 73 1013.2
20260504025802 44 291 0.0 0.0 0.00 0.00 0.00 73 1013.1
20260504025524 44 0.0 0.0 0.00 0.00 0.00 72 1013.4
20260504025259 44 293 0.0 0.0 0.00 0.00 0.00 72 1013.1
20260504024756 44 281 0.0 0.0 0.00 0.00 0.00 71 1013.2
20260504024516 44 0.0 0.0 0.00 0.00 0.00 69 1013.5
20260504024252 44 290 0.0 0.0 0.00 0.00 0.00 70 1013.2
20260504023749 45 291 0.0 0.0 0.00 0.00 0.00 69 1013.2
20260504023524 45 0.0 0.0 0.00 0.00 0.00 69 1013.4
20260504023246 45 294 0.0 0.0 0.00 0.00 0.00 68 1013.2
20260504022742 45 293 0.0 0.0 0.00 0.00 0.00 68 1013.1
20260504022516 45 0.0 0.0 0.00 0.00 0.00 68 1013.5
20260504022238 46 293 0.0 0.0 0.00 0.00 0.00 68 1013.2
20260504021735 46 292 0.0 0.0 0.00 0.00 0.00 67 1013.3
20260504021524 46 0.0 0.0 0.00 0.00 0.00 66 1013.4
20260504021232 46 294 0.0 0.0 0.00 0.00 0.00 66 1013.1
20260504020729 46 291 0.0 0.0 0.00 0.00 0.00 65 1013.1
20260504020516 47 273 0.0 1.0 0.00 0.00 0.00 64 1013.5
20260504020226 47 278 0.0 0.0 0.00 0.00 0.00 64 1013.3
20260504015722 47 294 0.0 0.0 0.00 0.00 0.00 63 1013.3
20260504015524 47 0.0 0.0 0.00 0.00 0.00 61 1013.4
20260504015218 47 286 0.0 0.0 0.00 0.00 0.00 61 1013.0
20260504014714 47 289 0.0 0.0 0.00 0.00 0.00 61 1013.1
20260504014516 47 0.0 0.0 0.00 0.00 0.00 60 1013.3
20260504014211 47 288 0.0 0.0 0.00 0.00 0.00 60 1013.0
20260504013709 47 288 0.0 0.0 0.00 0.00 0.00 58 1012.9
20260504013524 48 0.0 0.0 0.00 0.00 0.00 57 1013.2
20260504013206 48 289 0.0 0.0 0.00 0.00 0.00 56 1012.9
20260504012703 49 288 0.0 0.0 0.00 0.00 0.00 54 1013.0
20260504012516 49 0.0 0.0 0.00 0.00 0.00 53 1013.2
20260504012201 49 288 0.0 0.0 0.00 0.00 0.00 53 1013.0
20260504011658 50 287 0.0 0.0 0.00 0.00 0.00 52 1013.0
20260504011524 51 0.0 0.0 0.00 0.00 0.00 51 1013.1
20260504011154 51 282 0.0 0.0 0.00 0.00 0.00 51 1012.9
20260504010650 51 287 0.0 0.0 0.00 0.00 0.00 48 1012.6
20260504010516 52 0.0 0.0 0.00 0.00 0.00 48 1012.9
20260504010145 52 282 0.0 0.0 0.00 0.00 0.00 47 1012.6
20260504005643 53 285 0.0 0.0 0.00 0.00 0.00 45 1012.5
20260504005524 53 0.0 0.0 0.00 0.00 0.00 43 1012.7
20260504005139 54 284 0.0 0.0 0.00 0.00 0.00 42 1012.6
20260504004638 55 286 0.0 0.0 0.00 0.00 0.00 43 1012.5
20260504004516 56 263 0.0 1.0 0.00 0.00 0.00 39 1012.6
20260504004134 56 291 0.0 0.0 0.00 0.00 0.00 36 1012.3
20260504003631 57 293 0.0 0.0 0.00 0.00 0.00 34 1012.3
20260504003524 57 315 0.0 2.0 0.00 0.00 0.00 34 1012.6
20260504003127 57 324 1.0 1.0 0.00 0.00 0.00 34 1012.3
20260504002624 57 321 0.0 1.0 0.00 0.00 0.00 34 1012.2
20260504002516 57 321 1.0 5.0 0.00 0.00 0.00 34 1012.3
20260504002122 57 7 3.0 5.0 0.00 0.00 0.00 33 1012.1
20260504001620 57 305 1.0 1.0 0.00 0.00 0.00 34 1012.0
20260504001524 58 329 1.0 3.0 0.00 0.00 0.00 33 1012.2
20260504001115 58 339 1.0 2.0 0.00 0.00 0.00 33 1012.0
20260504000613 58 300 1.0 1.0 0.00 0.00 0.00 32 1011.9
20260504000516 58 314 1.0 3.0 0.00 0.00 0.00 32 1012.1
20260504000110 58 306 1.0 1.0 0.00 0.00 0.00 32 1011.7
20260503235608 58 298 2.0 2.0 0.00 0.00 0.00 32 1011.8
20260503235544 58 326 2.0 5.0 0.00 0.00 0.00 32 1011.9
20260503235105 59 301 2.0 2.0 0.00 0.00 0.00 32 1011.7
20260503234603 59 289 4.0 8.0 0.00 0.00 0.00 31 1011.8
20260503234516 59 328 2.0 5.0 0.00 0.00 0.00 31 1011.9
20260503234100 59 333 2.0 2.0 0.00 0.00 0.00 31 1011.6
20260503233556 59 305 3.0 5.0 0.00 0.00 0.00 30 1011.6
20260503233524 60 305 1.0 3.0 0.00 0.00 0.00 30 1011.7
20260503233052 60 294 0.0 1.0 0.00 0.00 0.00 29 1011.5
20260503232550 60 330 3.0 3.0 0.00 0.00 0.00 29 1011.4
20260503232516 60 345 2.0 6.0 0.00 0.00 0.00 28 1011.6
20260503232047 60 318 2.0 2.0 0.00 0.00 0.00 28 1011.3
20260503231545 60 289 4.0 8.0 0.00 0.00 0.00 28 1011.1
20260503231524 60 319 3.0 8.0 0.00 0.00 0.00 28 1011.6
20260503231041 60 305 4.0 5.0 0.00 0.00 0.00 28 1011.1
20260503230538 60 341 3.0 3.0 0.00 0.00 0.00 28 1011.3
20260503230516 60 341 2.0 6.0 0.00 0.00 0.00 28 1011.5
20260503230036 60 1 3.0 5.0 0.00 0.00 0.00 28 1011.2
20260503225532 61 89 2.0 3.0 0.00 0.00 0.00 28 1011.2
20260503225524 61 345 3.0 10.0 0.00 0.00 0.00 27 1011.5
20260503225027 61 6 4.0 5.0 0.00 0.00 0.00 27 1011.1
20260503224525 61 6 3.0 5.0 0.00 0.00 0.00 27 1011.1
20260503224516 61 332 3.0 9.0 0.00 0.00 0.00 27 1011.3
20260503224023 62 10 5.0 6.0 0.00 0.00 0.00 27 1010.9
20260503223524 61 326 3.0 7.0 0.00 0.00 0.00 27 1011.3
20260503223521 61 294 1.0 2.0 0.00 0.00 0.00 27 1010.9
20260503223016 61 340 3.0 6.0 0.00 0.00 0.00 27 1011.0
20260503222516 61 326 4.0 11.0 0.00 0.00 0.00 26 1011.3
20260503222514 61 345 5.0 6.0 0.00 0.00 0.00 26 1011.1
20260503222012 61 353 4.0 6.0 0.00 0.00 0.00 26 1011.1
20260503221524 61 1 5.0 14.0 0.00 0.00 0.00 26 1011.3
20260503221510 60 3 4.0 5.0 0.00 0.00 0.00 28 1010.9
20260503221007 61 342 4.0 5.0 0.00 0.00 0.00 27 1011.2
20260503220536 61 339 4.0 10.0 0.00 0.00 0.00 27 1011.4
20260503220503 62 48 7.0 9.0 0.00 0.00 0.00 26 1011.1
20260503220000 61 333 2.0 2.0 0.00 0.00 0.00 27 1011.1
20260503215524 61 349 3.0 10.0 0.00 0.00 0.00 27 1011.4
20260503215457 61 1 6.0 8.0 0.00 0.00 0.00 26 1011.3
20260503214954 61 3 3.0 3.0 0.00 0.00 0.00 28 1011.1
20260503214517 60 356 5.0 14.0 0.00 0.00 0.00 27 1011.4
20260503214452 60 34 2.0 3.0 0.00 0.00 0.00 27 1011.2
20260503213949 60 10 3.0 6.0 0.00 0.00 0.00 28 1011.2
20260503213604 60 337 5.0 11.0 0.00 0.00 0.00 26 1011.4
20260503213447 60 3 7.0 11.0 0.00 0.00 0.00 26 1010.9
20260503212943 60 333 1.0 1.0 0.00 0.00 0.00 26 1011.0
20260503212516 60 344 6.0 16.0 0.00 0.00 0.00 26 1011.5
20260503212441 60 6 7.0 9.0 0.00 0.00 0.00 26 1011.2
20260503211938 61 354 7.0 14.0 0.00 0.00 0.00 26 1011.1
20260503211544 60 311 6.0 15.0 0.00 0.00 0.00 26 1011.2
20260503211435 60 306 2.0 7.0 0.00 0.00 0.00 27 1010.9
20260503210930 60 344 7.0 8.0 0.00 0.00 0.00 26 1010.9
20260503210517 60 328 6.0 14.0 0.00 0.00 0.00 27 1011.3
20260503210427 60 299 5.0 7.0 0.00 0.00 0.00 27 1011.0
20260503205922 59 312 4.0 6.0 0.00 0.00 0.00 27 1010.9
20260503205524 59 341 5.0 13.0 0.00 0.00 0.00 28 1011.4
20260503205420 59 310 3.0 3.0 0.00 0.00 0.00 28 1011.2
20260503204916 59 322 9.0 11.0 0.00 0.00 0.00 27 1011.4
20260503204551 59 357 8.0 18.0 0.00 0.00 0.00 28 1011.3
20260503204413 59 31 6.0 9.0 0.00 0.00 0.00 27 1011.2
20260503203910 59 324 4.0 6.0 0.00 0.00 0.00 28 1011.1
20260503203524 59 351 6.0 13.0 0.00 0.00 0.00 28 1011.4
20260503203408 59 20 5.0 7.0 0.00 0.00 0.00 28 1011.1
20260503202904 60 348 4.0 6.0 0.00 0.00 0.00 29 1011.2
20260503202531 60 337 4.0 11.0 0.00 0.00 0.00 28 1011.3
20260503202403 60 335 5.0 6.0 0.00 0.00 0.00 29 1011.0
20260503201901 59 301 4.0 5.0 0.00 0.00 0.00 28 1011.2
20260503201525 59 320 5.0 13.0 0.00 0.00 0.00 28 1011.4
20260503201357 59 321 3.0 3.0 0.00 0.00 0.00 28 1011.1
20260503200855 59 285 4.0 6.0 0.00 0.00 0.00 29 1011.1
20260503200517 59 357 6.0 20.0 0.00 0.00 0.00 29 1011.4
20260503200350 59 2 7.0 11.0 0.00 0.00 0.00 28 1011.0
20260503195848 59 336 6.0 9.0 0.00 0.00 0.00 28 1011.2
20260503195525 58 324 5.0 16.0 0.00 0.00 0.00 29 1011.6
20260503195344 58 330 4.0 7.0 0.00 0.00 0.00 28 1011.3
20260503194842 58 350 12.0 15.0 0.00 0.00 0.00 29 1011.4
20260503194517 58 326 7.0 15.0 0.00 0.00 0.00 29 1011.8
20260503194337 58 284 5.0 7.0 0.00 0.00 0.00 30 1011.5
20260503193834 58 318 5.0 7.0 0.00 0.00 0.00 29 1011.4
20260503193525 58 347 4.0 11.0 0.00 0.00 0.00 30 1011.8
20260503193330 58 329 3.0 3.0 0.00 0.00 0.00 31 1011.4
20260503192826 57 332 9.0 13.0 0.00 0.00 0.00 29 1011.6
20260503192516 58 337 7.0 20.0 0.00 0.00 0.00 30 1011.9
20260503192321 58 30 4.0 9.0 0.00 0.00 0.00 31 1011.5
20260503191818 58 293 7.0 11.0 0.00 0.00 0.00 32 1011.6
20260503191525 57 321 6.0 15.0 0.00 0.00 0.00 30 1012.0
20260503191315 57 7 11.0 15.0 0.00 0.00 0.00 30 1011.8
20260503190812 57 4 7.0 10.0 0.00 0.00 0.00 30 1011.7
20260503190516 57 5 4.0 13.0 0.00 0.00 0.00 32 1012.0
20260503190309 57 51 8.0 11.0 0.00 0.00 0.00 32 1011.8
20260503185806 57 328 6.0 10.0 0.00 0.00 0.00 30 1011.7
20260503185525 56 348 5.0 16.0 0.00 0.00 0.00 32 1012.1
20260503185304 56 311 5.0 6.0 0.00 0.00 0.00 31 1011.9
20260503184802 57 345 6.0 7.0 0.00 0.00 0.00 32 1011.9
20260503184516 57 329 4.0 17.0 0.00 0.00 0.00 32 1012.1
20260503184258 57 33 5.0 8.0 0.00 0.00 0.00 32 1012.1
20260503183754 56 12 6.0 8.0 0.00 0.00 0.00 34 1011.9
20260503183525 57 341 6.0 16.0 0.00 0.00 0.00 32 1012.2
20260503183252 57 353 6.0 9.0 0.00 0.00 0.00 32 1012.1
20260503182749 59 38 3.0 5.0 0.00 0.00 0.00 32 1012.0
20260503182517 57 317 3.0 10.0 0.00 0.00 0.00 34 1012.2
20260503182248 57 285 4.0 5.0 0.00 0.00 0.00 34 1011.9
20260503181744 56 330 2.0 3.0 0.00 0.00 0.00 33 1011.9
20260503181525 56 341 8.0 16.0 0.00 0.00 0.00 33 1012.4
20260503181242 56 279 10.0 13.0 0.00 0.00 0.00 33 1012.1
20260503180738 56 349 3.0 3.0 0.00 0.00 0.00 36 1012.0
20260503180517 56 337 5.0 13.0 0.00 0.00 0.00 34 1012.5
20260503180236 56 334 4.0 7.0 0.00 0.00 0.00 35 1012.3
20260503175732 55 271 5.0 7.0 0.00 0.00 0.00 34 1012.3
20260503175525 55 332 5.0 20.0 0.00 0.00 0.00 35 1012.5
20260503175231 54 344 6.0 7.0 0.00 0.00 0.00 35 1012.2
20260503174726 54 336 3.0 5.0 0.00 0.00 0.00 37 1012.4
20260503174517 55 338 6.0 17.0 0.00 0.00 0.00 35 1012.6
20260503174224 56 14 7.0 10.0 0.00 0.00 0.00 35 1012.3
20260503173719 54 335 5.0 6.0 0.00 0.00 0.00 36 1012.3
20260503173525 53 348 5.0 10.0 0.00 0.00 0.00 37 1012.7
20260503173215 53 269 3.0 5.0 0.00 0.00 0.00 37 1012.4
20260503172712 53 316 7.0 9.0 0.00 0.00 0.00 37 1012.5
20260503172517 53 352 5.0 14.0 0.00 0.00 0.00 38 1012.7
20260503172209 53 281 2.0 5.0 0.00 0.00 0.00 38 1012.4
20260503171706 54 8 9.0 13.0 0.00 0.00 0.00 36 1012.5
20260503171525 53 345 6.0 15.0 0.00 0.00 0.00 37 1012.9
20260503171203 53 25 5.0 7.0 0.00 0.00 0.00 38 1012.5
20260503170700 53 348 3.0 3.0 0.00 0.00 0.00 38 1012.5
20260503170517 53 351 4.0 15.0 0.00 0.00 0.00 38 1012.8
20260503170157 53 0 3.0 5.0 0.00 0.00 0.00 39 1012.4
20260503160118 52 10 5.0 7.0 0.00 0.00 0.00 39 1012.9
20260503150543 51 320 2.0 2.0 0.00 0.00 0.00 38 1013.0
20260503150517 51 351 3.0 13.0 0.00 0.00 0.00 37 1013.3
20260503130932 47 30 6.0 9.0 0.00 0.00 0.00 52 1012.9
20260503130532 47 18 7.0 21.0 0.00 0.00 0.00 52 1013.4
20260503130430 47 24 5.0 6.0 0.00 0.00 0.00 53 1013.2
20260503110823 44 17 2.0 3.0 0.00 0.00 0.00 58 1012.8
20260503110537 44 339 3.0 7.0 0.00 0.00 0.00 58 1013.0
20260503110320 44 1 2.0 2.0 0.00 0.00 0.00 59 1012.7
20260503100246 44 2 4.0 6.0 0.00 0.00 0.00 58 1012.0
20260503090206 45 337 3.0 3.0 0.00 0.00 0.00 55 1011.8
20260503081636 45 1 3.0 5.0 0.00 0.00 0.00 56 1011.7
20260503081526 45 350 2.0 6.0 0.00 0.04 0.00 55 1011.9
20260503081133 45 359 4.0 5.0 0.00 0.00 0.00 56 1011.7
20260503080629 44 346 3.0 5.0 0.00 0.00 0.00 60 1011.9
20260503080518 45 309 0.0 2.0 0.00 0.04 0.00 62 1011.9
20260503080126 45 283 0.0 0.0 0.00 0.00 0.00 62 1011.7
20260503072603 45 287 1.0 2.0 0.00 0.00 0.00 59 1011.6
20260503072518 45 290 0.0 1.0 0.00 0.04 0.00 59 1011.9
20260503072100 45 289 0.0 0.0 0.00 0.00 0.00 59 1011.6
20260503071556 45 288 0.0 0.0 0.00 0.00 0.00 58 1011.7
20260503071526 45 0.0 0.0 0.00 0.04 0.00 58 1011.9
20260503071053 45 280 0.0 0.0 0.00 0.00 0.00 58 1011.7
20260503070550 46 286 0.0 0.0 0.00 0.00 0.00 57 1011.6
20260503070518 46 287 0.0 1.0 0.00 0.04 0.00 56 1012.0